Weather past 2 weeks in Mamoutzou, Mayotte

Now
82 °F

Warm.


Feels Like: 89 °F
Forecast: 80 / 82 °F
Wind: 9 mph from Northwest

Location: Dzaoudzi / Pamanzi Mayotte

Current Time: Jan 31, 2015 at 7:30:12 PM

Latest Report: Jan 31, 2015 at 7:00 PM


Visibility: N/A

Pressure: 29.86 "Hg

Humidity: 79%

Dew point: 75 °F

Location of MamoutzouLocation

Historic Weather in Mamoutzou — Graph

°F

Mamoutzou temperature yesterday

Maximum temperature yesterday: 86 °F (at 10:30 AM)
Minimum temperature yesterday: 79 °F (at 12:00 AM)
Average temperature yesterday: 82 °F

Past Weeks' High & Low Weather Summary

 TemperatureHumidityPressure
High88 °F (Jan 18, 1:00 PM)94% (Jan 19, 1:00 AM)29.98 "Hg (Jan 19, 1:00 AM)
Low75 °F (Jan 19, 11:04 AM)59% (Jan 25, 1:00 PM)29.68 "Hg (Jan 16, 6:00 PM)
Average81 °F80%29.85 "Hg
* Reported Jan 16 6:00 PM — Jan 31 6:30 PM, Mamoutzou, Weather by CustomWeather, © 2014

Note: Actual official high and low records may vary slightly from our data, if they occured in-between our weather recording intervals... More about our weather records

Advertising

Mamoutzou weather history for previous 24 hours

 ConditionsComfort  
Time TempWeatherWind HumidityBarometerVisibility
6:30 PM
Jan 31
82 °FWarm.10 mph79%29.86 "HgN/A
6:00 PM82 °FBroken clouds.12 mph79%29.86 "HgN/A
5:30 PM82 °FPartly sunny.10 mph79%29.86 "HgN/A
5:00 PM82 °FOvercast.10 mph79%29.86 "HgN/A
4:30 PM82 °FOvercast.13 mph79%29.86 "HgN/A
4:00 PM82 °FThundershowers. Overcast.13 mph79%29.86 "HgN/A
3:30 PM82 °FThundershowers. Overcast.12 mph79%29.86 "HgN/A
3:00 PM82 °FOvercast.10 mph79%29.86 "HgN/A
2:30 PM82 °FMore clouds than sun.9 mph79%29.86 "HgN/A
2:00 PM84 °FBroken clouds.12 mph74%29.86 "HgN/A
1:30 PM82 °FScattered showers. Partly sunny.12 mph79%29.86 "HgN/A
12:30 PM86 °FScattered showers. Partly sunny.9 mph75%29.89 "HgN/A
12:00 PM86 °FScattered showers. Partly sunny.9 mph75%29.92 "HgN/A
11:30 AM84 °FScattered showers. Partly sunny.7 mph79%29.92 "HgN/A
11:00 AM84 °FScattered showers. Partly sunny.8 mph79%29.92 "HgN/A
10:30 AM84 °FPartly sunny.9 mph79%29.92 "HgN/A
10:00 AM84 °FPartly sunny.8 mph79%29.92 "HgN/A
9:30 AM82 °FScattered showers. Broken clouds.3 mph84%29.92 "HgN/A
9:00 AM82 °FBroken clouds.2 mph84%29.92 "HgN/A
8:30 AM82 °FBroken clouds.3 mph84%29.92 "HgN/A
8:00 AM81 °FBroken clouds.2 mph89%29.92 "HgN/A
7:30 AM79 °FBroken clouds.No wind94%29.89 "HgN/A
7:00 AM79 °FPartly sunny.No wind94%29.89 "HgN/A
6:00 AM79 °FScattered showers. Partly sunny.No wind89%29.86 "HgN/A
5:30 AM79 °FPassing clouds.No wind89%29.86 "HgN/A
5:00 AM79 °FWarm.3 mph89%29.86 "HgN/A
4:30 AM79 °FWarm.2 mph89%29.83 "HgN/A
4:00 AM79 °FPartly cloudy.5 mph89%29.83 "HgN/A
3:30 AM79 °FLight rain. Partly cloudy.8 mph89%29.83 "HgN/A
3:00 AM79 °FLight rain. Passing clouds.12 mph89%29.86 "HgN/A
2:30 AM79 °FPassing clouds.12 mph89%29.83 "HgN/A
2:00 AM79 °FPartly cloudy.12 mph89%29.86 "HgN/A
1:30 AM77 °FLight rain. Overcast.6 mph94%29.86 "Hg4 mi
1:00 AM77 °FRain. Fog.12 mph94%29.86 "Hg2 mi
12:30 AM77 °FLight rain. Partly cloudy.7 mph89%29.89 "Hg4 mi
12:00 AM79 °FPartly cloudy.16 mph79%29.89 "HgN/A
11:30 PM
Jan 30
82 °FMostly cloudy.8 mph79%29.89 "HgN/A
11:00 PM82 °FOvercast.8 mph79%29.89 "HgN/A
10:30 PM82 °FWarm.9 mph79%29.89 "HgN/A
10:00 PM82 °FWarm.8 mph74%29.92 "HgN/A
9:30 PM81 °FPassing clouds.8 mph79%29.89 "HgN/A
9:00 PM82 °FPassing clouds.10 mph79%29.89 "HgN/A
8:30 PM82 °FWarm.8 mph74%29.89 "HgN/A
8:00 PM81 °FWarm.10 mph84%29.86 "HgN/A
7:30 PM82 °FWarm.13 mph79%29.86 "HgN/A
7:00 PM82 °FPassing clouds.16 mph79%29.86 "HgN/A
Weather by CustomWeather, © 2014

See weather overviewHow to use our weather pages